Date String (YYYY-MM-DD hh:mm:ss) UTC,Instrument flags,Ambient pressure (hPa),Sample flow (lpm),Bypass flow (lpm),Sample temperature (°C),Ambient temperature (°C),ASC tube jacket temperature (°C),LED temperature (°C),Box temperature (°C),Sample RH (%),Span deviation,Mass concentration (μg/m³),Mass concentration (μg/m³),Mass concentration (μg/m³)
DateTimeUTC,F1_M11,P_M11,Q1_M11,Q2_M11,T1_M11,T2_M11,T3_M11,T4_M11,T5_M11,U1_M11,ZSPAN_M11,X2_M11,X0_M11,X1_M11
2023-05-26 04:00:00,,0829.7,5.00,0.00,29.0,27.4,00.0,37.4,30.6,24.6,0001.1,0003.81,0009.21,0003.11
2023-05-26 04:01:00,,0829.7,4.99,0.00,29.0,27.3,00.0,37.4,30.6,24.5,0001.3,0003.80,0008.97,0003.11
2023-05-26 04:02:00,,0829.7,5.00,0.00,29.0,27.3,00.0,37.4,30.6,24.5,0001.3,0003.79,0008.83,0003.12
2023-05-26 04:03:00,,0829.7,5.00,0.00,29.0,27.3,00.0,37.4,30.6,24.6,0001.2,0003.82,0008.65,0003.11
2023-05-26 04:04:00,,0829.7,5.00,0.00,29.0,27.3,00.0,37.4,30.6,24.4,0001.0,0003.86,0008.70,0003.11
2023-05-26 04:05:00,,0829.7,4.99,0.00,29.0,27.3,00.0,37.4,30.5,24.4,0000.4,0003.94,0009.02,0003.13
2023-05-26 04:06:00,,0829.7,5.00,0.00,29.0,27.3,00.0,37.4,30.5,24.5,0000.0,0003.95,0008.97,0003.14
2023-05-26 04:07:00,,0829.7,5.01,0.00,29.0,27.3,00.0,37.4,30.5,24.3,0000.0,0003.98,0009.22,0003.16
2023-05-26 04:08:00,,0829.7,5.00,0.00,29.0,27.2,00.0,37.4,30.5,24.4,0000.0,0004.00,0009.45,0003.18
2023-05-26 04:09:00,,0829.7,5.00,0.00,29.0,27.3,00.0,37.4,30.5,24.4,0000.0,0003.97,0008.74,0003.19
2023-05-26 04:10:00,,0829.7,5.00,0.00,29.0,27.3,00.0,37.4,30.5,24.4,0000.0,0003.97,0008.46,0003.20
2023-05-26 04:11:00,,0829.7,4.99,0.00,28.9,27.3,00.0,37.4,30.5,24.3,0000.0,0004.01,0008.70,0003.20
2023-05-26 04:12:00,,0829.7,5.00,0.00,28.9,27.2,00.0,37.4,30.5,24.4,0000.0,0004.06,0008.85,0003.21
2023-05-26 04:13:00,,0829.7,5.00,0.00,28.9,27.2,00.0,37.4,30.5,24.4,0000.0,0004.09,0009.61,0003.22
2023-05-26 04:14:00,,0829.7,5.01,0.00,28.9,27.2,00.0,37.4,30.5,24.4,0000.0,0004.10,0009.96,0003.22
2023-05-26 04:15:00,,0829.7,5.00,0.00,28.9,27.2,00.0,37.4,30.5,24.5,0000.0,0004.11,0010.02,0003.25
2023-05-26 04:16:00,,0829.7,4.99,0.00,28.9,27.2,00.0,37.4,30.5,24.6,0000.0,0004.10,0009.83,0003.26
2023-05-26 04:17:00,,0829.7,4.99,0.00,28.9,27.2,00.0,37.4,30.5,24.7,0000.0,0004.19,0010.06,0003.29
2023-05-26 04:18:00,,0829.6,5.01,0.00,28.9,27.2,00.0,37.4,30.5,24.7,0000.0,0004.23,0009.96,0003.30
2023-05-26 04:19:00,,0829.7,5.00,0.00,28.9,27.2,00.0,37.4,30.5,24.8,0000.0,0004.30,0009.77,0003.32
2023-05-26 04:20:00,,0829.7,5.01,0.00,28.9,27.2,00.0,37.4,30.5,24.8,0000.2,0004.37,0009.95,0003.34
2023-05-26 04:21:00,,0829.7,4.99,0.00,28.9,27.2,00.0,37.3,30.5,24.7,0000.1,0004.46,0009.98,0003.37
2023-05-26 04:22:00,,0829.6,4.99,0.00,28.9,27.2,00.0,37.3,30.4,24.6,0001.2,0004.51,0009.97,0003.39
2023-05-26 04:23:00,,0829.7,4.99,0.00,28.9,27.2,00.0,37.3,30.5,24.3,0000.4,0004.56,0010.47,0003.42
2023-05-26 04:24:00,,0829.6,5.00,0.00,28.9,27.2,00.0,37.3,30.4,24.2,0001.1,0004.63,0010.03,0003.45
2023-05-26 04:25:00,,0829.7,5.00,0.00,28.9,27.2,00.0,37.3,30.5,24.1,0002.1,0004.68,0009.78,0003.48
2023-05-26 04:26:00,,0829.6,5.00,0.00,28.9,27.2,00.0,37.3,30.4,24.0,0002.9,0004.70,0009.92,0003.48
2023-05-26 04:27:00,,0829.7,5.00,0.00,28.9,27.2,00.0,37.3,30.5,24.0,0002.3,0004.68,0009.86,0003.49
2023-05-26 04:28:00,,0829.7,5.00,0.00,28.9,27.2,00.0,37.3,30.5,23.9,0002.4,0004.63,0010.07,0003.49
2023-05-26 04:29:00,,0829.7,5.00,0.00,28.9,27.2,00.0,37.3,30.5,23.9,0002.5,0004.64,0010.25,0003.48
2023-05-26 04:30:00,,0829.7,5.00,0.00,28.9,27.2,00.0,37.3,30.5,24.1,0003.0,0004.63,0010.28,0003.49
2023-05-26 04:31:00,,0829.7,5.01,0.00,28.9,27.3,00.0,37.3,30.5,23.9,0003.4,0004.73,0010.48,0003.51
2023-05-26 04:32:00,,0829.7,5.00,0.00,28.9,27.3,00.0,37.3,30.5,23.8,0003.2,0004.79,0010.64,0003.53
2023-05-26 04:33:00,,0829.8,4.99,0.00,28.9,27.3,00.0,37.3,30.5,23.8,0003.4,0004.83,0010.71,0003.54
2023-05-26 04:34:00,,0829.8,4.99,0.00,28.9,27.3,00.0,37.3,30.5,24.1,0003.3,0004.78,0010.21,0003.54
2023-05-26 04:35:00,,0829.8,4.99,0.00,28.9,27.3,00.0,37.3,30.5,24.1,0003.5,0004.78,0010.12,0003.55
2023-05-26 04:36:00,,0829.8,5.00,0.00,28.9,27.4,00.0,37.3,30.6,24.0,0002.9,0004.78,0010.11,0003.55
2023-05-26 04:37:00,,0829.8,5.00,0.00,29.0,27.4,00.0,37.3,30.6,24.0,0001.9,0004.75,0009.96,0003.55
2023-05-26 04:38:00,,0829.9,5.01,0.00,29.0,27.5,00.0,37.3,30.6,24.0,0002.1,0004.77,0009.97,0003.56
2023-05-26 04:39:00,,0830.0,5.01,0.00,29.0,27.5,00.0,37.3,30.6,24.1,0002.6,0004.82,0009.74,0003.59
2023-05-26 04:40:00,,0830.0,5.00,0.00,29.0,27.6,00.0,37.4,30.6,24.3,0001.9,0004.86,0009.52,0003.61
2023-05-26 04:41:00,,0830.0,5.01,0.00,29.0,27.6,00.0,37.4,30.7,24.4,0001.8,0004.90,0009.51,0003.62
2023-05-26 04:42:00,,0830.0,5.00,0.00,29.0,27.6,00.0,37.4,30.7,24.8,0001.8,0004.85,0009.36,0003.62
2023-05-26 04:43:00,,0830.0,5.00,0.00,29.0,27.5,00.0,37.4,30.7,25.9,0001.9,0004.75,0009.11,0003.61
2023-05-26 04:44:00,,0830.0,5.00,0.00,29.0,27.5,00.0,37.4,30.6,26.4,0001.7,0004.69,0008.89,0003.62
2023-05-26 04:45:00,,0830.0,5.00,0.00,29.0,27.5,00.0,37.4,30.7,27.1,0001.6,0004.69,0008.93,0003.63
2023-05-26 04:46:00,,0830.0,5.00,0.00,29.0,27.5,00.0,37.4,30.7,27.3,0001.5,0004.65,0008.99,0003.64
2023-05-26 04:47:00,,0830.0,5.00,0.00,29.0,27.5,00.0,37.4,30.7,27.1,0002.0,0004.64,0009.11,0003.64
2023-05-26 04:48:00,,0830.0,5.00,0.00,29.1,27.5,00.0,37.4,30.7,27.3,0002.5,0004.64,0009.13,0003.64
2023-05-26 04:49:00,,0830.0,5.00,0.00,29.1,27.6,00.0,37.4,30.7,27.3,0002.4,0004.66,0009.94,0003.65
2023-05-26 04:50:00,,0830.0,5.00,0.00,29.1,27.6,00.0,37.4,30.7,27.4,0001.7,0004.65,0010.13,0003.65
2023-05-26 04:51:00,,0830.0,5.00,0.00,29.1,27.6,00.0,37.4,30.7,27.3,0001.7,0004.63,0010.22,0003.64
2023-05-26 04:52:00,,0830.0,5.00,0.00,29.1,27.6,00.0,37.4,30.7,27.1,0000.8,0004.56,0010.17,0003.66
2023-05-26 04:53:00,,0830.0,4.99,0.00,29.1,27.6,00.0,37.4,30.7,26.9,0000.0,0004.53,0010.43,0003.66
2023-05-26 04:54:00,,0830.0,5.00,0.00,29.1,27.6,00.0,37.4,30.7,26.9,0000.0,0004.56,0010.53,0003.67
2023-05-26 04:55:00,,0830.0,5.00,0.00,29.1,27.6,00.0,37.4,30.7,26.9,0000.0,0004.63,0011.32,0003.68
2023-05-26 04:56:00,,0830.0,5.00,0.00,29.1,27.6,00.0,37.5,30.7,26.8,0000.0,0004.65,0011.67,0003.67
2023-05-26 04:57:00,,0830.0,5.00,0.00,29.1,27.6,00.0,37.5,30.7,26.7,0000.0,0004.65,0011.51,0003.67
2023-05-26 04:58:00,,0830.0,5.00,0.00,29.1,27.6,00.0,37.5,30.7,26.0,0000.0,0004.68,0011.71,0003.65
2023-05-26 04:59:00,,0830.0,5.00,0.00,29.1,27.6,00.0,37.5,30.7,26.0,0000.0,0004.67,0011.64,0003.65
